{"data":{"norad_id":66106,"epoch":"2026-05-25T04:00:03.998880Z","epoch_age_seconds":61406,"freshness":"FRESH","line1":"1 66106U 25236W   26145.16671295 -.00005743  00000+0 -15898-3 0  9996","line2":"2 66106  53.1605 108.5608 0001587 101.1919 297.9404 15.34397260  5709","mean_motion":15.3439726,"eccentricity":0.0001587,"inclination_deg":53.1605,"raan_deg":108.5608,"arg_perigee_deg":101.1919,"mean_anomaly_deg":297.9404,"bstar":-0.00015898,"rev_number":570,"period_min":93.847925666916,"perigee_km":461.6257414381,"apogee_km":463.79702671521,"semimajor_km":6840.8483840767,"source":"CELESTRAK","updated_at":"2026-05-25T13:38:21.056855Z"}}